Starlink 36113

operational
NORAD ID: 66982 Int'l Des: 2025-288 Owner: SPXS Country: US Constellation: starlink
LEOCIRCULAR

Über Starlink 36113

Beschreibung wird geladen...

Live-Position

3D-Globus wird geladen...

Nächste Überflüge

Höhenverlauf

Altitude vs Time

uPlot chart will show altitude changes over time

Zweizeiliger Elementsatz

1 66982C 25288Z 25346.10256944 -.01088700 00000+0 -17768-2 0 3469
2 66982 43.0041 171.8028 0001827 270.4268 155.1254 16.03372823 18
Epoch: 12. Dez. 2025 • Age: 54 hours

Aktueller Status

Höhe 287.3 km
Geschwindigkeit 7.74 km/s
Subsatellitenpunkt -39.93°S, 133.69°W
Startdatum 8. Dez. 2025
Alter 5 days
Typ internet

Technische Details

Klassifizierung Payload
Masse 575.00 kg
Trockenmasse 530.00 kg
Gesamtmasse 575.00 kg
Länge 0.30 m
Durchmesser 4.10 m
Spannweite 29.00 m
Form Box + pan
Hersteller SPXS
Bus-Typ Starlink V2MO
Phasenstatus In Orbit
Besitzer/Staat SPXS/US

Große Konstellationen

Loading constellations...